{"data":{"norad_id":59495,"epoch":"2026-09-20T20:58:33.639744Z","epoch_age_seconds":133025,"freshness":"FRESH","line1":"1 59495U 24071M   26263.87400046  .00000549  00000+0  29480-4 0  9998","line2":"2 59495  43.0038 317.6953 0001240 269.0930  90.9780 15.27575188138051","mean_motion":15.27575188,"eccentricity":0.000124,"inclination_deg":43.0038,"raan_deg":317.6953,"arg_perigee_deg":269.093,"mean_anomaly_deg":90.978,"bstar":2.948e-5,"rev_number":13805,"period_min":94.267045662436,"perigee_km":482.21271607397,"apogee_km":483.9142937992,"semimajor_km":6861.2005049366,"source":"CELESTRAK","updated_at":"2026-09-22T09:00:48.958175Z"}}